Regional Weather Roundup
Issued by NWS

Home | Current Version | Previous Version | Text Only | Print | Product List | Glossary Off
Versions: 1 2 3 4 5 6 7 8 9 10 11 12 13 14 15 16 17 18 19 20 21 22 23 24 25 26 27 28 29 30 31 32 33 34 35 36 37 38 39 40 41 42 43 44 45 46 47 48 49 50

000
ASUS43 KIND 201809
RWRIN

WEATHER ROUNDUP FOR INDIANA
NATIONAL WEATHER SERVICE INDIANAPOLIS IN
200 PM EDT FRI OCT 20 2017

NOTE: "FAIR" INDICATES FEW OR NO CLOUDS BELOW 12,000 FEET WITH NO
SIGNIFICANT WEATHER AND/OR OBSTRUCTIONS TO VISIBILITY.

* - STATION DOES NOT REPORT WEATHER SUCH AS PRECIPITATION OR FOG.

+ - STATION NOT QUALITY CONTROLLED BY THE NATIONAL WEATHER SERVICE.
    USE DATA WITH CAUTION...ESPECIALLY DEWPOINT AND RELATIVE
    HUMIDITY OBSERVATIONS.

INZ001>003-010>013-019-020-201900-
NORTHWEST INDIANA

CITY           SKY/WX    TMP DP  RH WIND       PRES   REMARKS
GARY /AIRPORT/ MOSUNNY   79  46  31 S10       30.15F
KNOX *+        SUNNY     75  52  43 S13       30.17F
LA PORTE +     SUNNY     75  52  43 S9        30.17F
6HR MIN TEMP:  45; 6HR MAX TEMP:  75;

MICHIGAN CITY+ SUNNY     75  52  43 S9        30.16F
MONTICELLO +   SUNNY     75  49  40 S9G17     30.19F
6HR MIN TEMP:  52; 6HR MAX TEMP:  75;

RENSSELAER +   SUNNY     77  34  20 S12       30.17F
VALPARAISO     SUNNY     77  53  43 S13       30.17F
6HR MIN TEMP:  46; 6HR MAX TEMP:  78;


$$

LMZ046-743>745-201900-
SOUTHERN LAKE MICHIGAN

STATION/POSITION TIME  TEMP    WIND        PRES    WAVE
                       AIR SEA DIR/SP/G            HT
                 (UTC) (F)     (DEG/KT/KT) (MB)    (FT)
BURNS HARBOR     1740   75     190/ 12/ 15 1021.3F
MICHIGAN CITY    1740   73     170/ 12/ 13   N/A
5NW MICH CITY    1800   67 58  200/  8/ 10   N/A     1

$$

INZ004-005-014>016-021>024-201900-
NORTH CENTRAL INDIANA

CITY           SKY/WX    TMP DP  RH WIND       PRES   REMARKS
ELKHART        SUNNY     75  52  43 S9        30.18F
GOSHEN         SUNNY     74  50  42 S16       30.19F
6HR MIN TEMP:  44; 6HR MAX TEMP:  75;

LOGANSPORT +   SUNNY     73  50  43 S14       30.21F
PERU/GRISSOM   SUNNY     76  52  43 SW8       30.20F
6HR MIN TEMP:  49; 6HR MAX TEMP:  76;

SOUTH BEND     SUNNY     75  52  44 S14       30.17F
6HR MIN TEMP:  44; 6HR MAX TEMP:  75;

WARSAW +       SUNNY     73  52  46 S9        30.20F

$$

INZ006>009-017-018-025>027-201900-
NORTHEAST INDIANA

CITY           SKY/WX    TMP DP  RH WIND       PRES   REMARKS
AUBURN +       SUNNY     73  50  43 S7        30.22F
FORT WAYNE     MOSUNNY   76  52  43 S10       30.21F
6HR MIN TEMP:  44; 6HR MAX TEMP:  76;

HUNTINGTON +   SUNNY     74  50  41 S8        30.21F
6HR MIN TEMP:  44; 6HR MAX TEMP:  74;

KENDALLVILLE + SUNNY     75  53  46 SW10      30.22F

$$

INZ028-029-035-036-043>045-051>053-201900-
WEST CENTRAL INDIANA

CITY           SKY/WX    TMP DP  RH WIND       PRES   REMARKS
CRAWFORDSVL +  SUNNY     73  50  43 S9        30.20
GREENCASTLE +  SUNNY     72  50  46 S5        30.22F
LAFAYETTE      SUNNY     75  52  44 SW10G16   30.18F
6HR MIN TEMP:  47; 6HR MAX TEMP:  75;

TERRE HAUTE    SUNNY     74  51  44 S14       30.21F
6HR MIN TEMP:  45; 6HR MAX TEMP:  74;


$$

INZ030>032-037>040-046>048-054>057-064-065-201900-
CENTRAL INDIANA

CITY           SKY/WX    TMP DP  RH WIND       PRES   REMARKS
CP ATTERBURY + SUNNY     73  50  43 SE10      30.23F
COLUMBUS       SUNNY     72  46  40 S8        30.24F
FISHERS *+     SUNNY     75  57  53 S9        30.22
FRANKFORT +    PTSUNNY   78  52  41 SW8       30.23F
6HR MIN TEMP:  48; 6HR MAX TEMP:  78;

GREENWOOD *+   SUNNY     77  55  46 S8        30.24F
6HR MIN TEMP:  50; 6HR MAX TEMP:  77;

INDIANAPOLIS   MOSUNNY   74  52  46 SE7       30.22F
6HR MIN TEMP:  50; 6HR MAX TEMP:  74;

-EAGLE CREEK   SUNNY     73  50  44 S7        30.21F
6HR MIN TEMP:  47; 6HR MAX TEMP:  74;

KOKOMO +       SUNNY     76  53  44 S13       30.22F
6HR MIN TEMP:  47; 6HR MAX TEMP:  76;

MARION +       SUNNY     73  52  46 S14       30.22F
MT COMFORT *+  SUNNY     73  57  56 S8        30.23F
SHELBYVILLE    SUNNY     75  49  39 S9        30.22F
6HR MIN TEMP:  46; 6HR MAX TEMP:  75;

ZIONSVILLE +   SUNNY     72  52  48 S10       30.23F
6HR MIN TEMP:  44; 6HR MAX TEMP:  72;


$$

INZ033-034-041-042-049-050-058-059-201900-
EAST CENTRAL INDIANA

CITY           SKY/WX    TMP DP  RH WIND       PRES   REMARKS
MUNCIE         SUNNY     77  50  38 VRB6      30.22F
6HR MIN TEMP:  51; 6HR MAX TEMP:  77;

RICHMOND +     SUNNY     72  50  46 S6        30.26F

$$

INZ060-061-067>069-081>083-085>088-201900-
SOUTHWEST INDIANA

CITY           SKY/WX    TMP DP  RH WIND       PRES   REMARKS
EVANSVILLE     SUNNY     74  51  44 CALM      30.23F
6HR MIN TEMP:  46; 6HR MAX TEMP:  74;

HUNTINGBURG +  SUNNY     73  53  49 SE6       30.23F
6HR MIN TEMP:  48; 6HR MAX TEMP:  73;

WASHINGTON +   SUNNY     75  46  35 S6        30.22F
6HR MIN TEMP:  45; 6HR MAX TEMP:  75;


$$

INZ062-063-066-070>080-084-089>092-201900-
SOUTH CENTRAL AND SOUTHEAST INDIANA

CITY           SKY/WX    TMP DP  RH WIND       PRES   REMARKS
BEDFORD +      SUNNY     75  48  38 S7        30.22F
BLOOMINGTON    SUNNY     75  48  38 S8        30.23F
6HR MIN TEMP:  46; 6HR MAX TEMP:  75;

MADISON *+     SUNNY     73  48  40 SE7       30.27F
NORTH VERNON + SUNNY     73  52  46 S6        30.24F
SEYMOUR +      SUNNY     75  52  43 S8        30.23F

$$





USA.gov is the U.S. government's official web portal to all federal, state and local government web resources and services.